www.pogodaiklimat.ru

Погода и климат >> Архив погоды >> Россия >> Краснодарский край >> Красная Поляна


АРХИВ ПОГОДЫ в Красной Поляне

Время (UTC), дата Ветер
(напр.,м/с)
 
Видим.   Явления Облачность Т
(С)
Тd
(С)
f
(%)
Тe
(С)
Тes
(С)
Комфортность P
(гПа)
Po
(гПа)
Тmin
(С)
Tmax
(С)
R
(мм)
R24
(мм)
S
(см)
12 12.07 ЮЗ 3 20 км 8/5 600 м
[Cu med, cong Ac cast]
+22.8 +14.4 59 +26 +30 жарко 1005.9 943.0
15 12.07 З 2 19 км 6/3 600 м
[Cu med, cong Ac cast Ci sp]
+20.8 +14.2 66 +24 +25 комфорт 1007.3 943.9 +24.0 2
18 12.07 С 1 20 км 9/8 600 м
[Sc diur, vesp Ac cast]
+17.4 +13.9 80 +18 +18 1009.6 945.4
21 12.07 штиль 0 20 км 10/10 870 м
[Sc]
+16.0 +14.2 89 +16 +16 1010.0 945.4
00 13.07 СВ 1 20 км в посл. час ливневой дождь 10/8 600 м
[Cb calv Ac As]
+15.9 +15.3 96 +17 +17 1009.1 944.6
03 13.07 В 1 20 км {ливн. осадки} 10/8 600 м
[Cb calv Ac As]
+15.6 +15.6 100 +16 +16 1009.3 944.7 +15.3 0.3
06 13.07 Ю 2 20 км {ливн. осадки} 8/8 600 м
[Cb calv]
+18.2 +15.3 83 +19 +21 1009.5 945.5
09 13.07 ЮЗ 2 20 км 8/8 600 м
[Cb calv]
+20.5 +11.4 56 +23 +27 комфорт 1009.5 945.9
12 13.07 З 2 20 км 8/8 600 м
[Cb calv Ac cuf]
+21.4 +12.5 57 +24 +26 комфорт 1009.8 946.4
15 13.07 ЮЗ 2 20 км {ливн. осадки} 8/4 600 м
[Cb calv Ac cuf Ci fib]
+19.9 +12.9 64 +22 +23 комфорт 1010.6 946.8 +22.8 0.1
18 13.07 С 1 20 км {ливн. осадки} 8/3 1000 м
[Sc Ac cast Ci fib]
+15.8 +12.2 79 +16 +16 1012.3 947.5
21 13.07 С 1 20 км 4/3 1000 м
[Sc Ac cast Ci fib]
+14.2 +11.5 84 +15 +15 1012.5 947.3
00 14.07 штиль 0 20 км 6/0
[Ci fib]
+12.9 +11.8 93 +12 +12 1012.0 946.6
03 14.07 С 1 20 км 8/0
[Ci fib]
+12.7 +10.2 85 +13 +14 1012.0 946.5 +12.0
06 14.07 Ю 1 20 км 4/0
[Ci fib]
+18.7 +10.5 59 +20 +32 1010.2 946.1
09 14.07 ЮЗ 2 20 км 3/3 1000 м
[Cu hum]
+23.0 +11.4 48 +25 +39 комфорт 1007.9 944.9
12 14.07 ЮЗ 4 20 км 8/3 1000 м
[Cu hum Ci fib]
+23.9 +10.9 44 +25 +31 комфорт 1006.7 943.9
15 14.07 З 1 20 км 10/1 1000 м
[Cu hum Ac As]
+21.3 +11.3 53 +23 +24 комфорт 1007.1 943.8 +24.4
18 14.07 СВ 2 20 км 10/0
[Ac As]
+18.3 +11.1 63 +19 +19 1007.5 943.5
21 14.07 С 1 20 км 4/0
[Ci fib]
+15.5 +11.1 75 +16 +16 1007.0 942.5
00 15.07 С 1 20 км ясно +13.6 +9.3 75 +14 +14 1005.7 940.8
03 15.07 штиль 0 20 км ясно +13.2 +9.5 78 +13 +14 1004.6 939.7 +12.6
06 15.07 В 1 20 км 10/0
[Ac lent Cs]
+17.0 +11.7 71 +18 +23 1004.1 940.1
09 15.07 СВ 2 19 км в посл. час ливневой дождь 10/6 1500 м
[Cb cap Ac As]
+18.0 +15.1 83 +19 +21 1002.6 939.0
12 15.07 В 1 18 км ливневой дождь 10/10 120 м
[Cb cap]
+16.1 +16.1 100 +17 +17 1005.3 941.1
15 15.07 штиль 0 20 км в посл. час ливневой дождь 8/8 1000 м
[Cb calv Ac cast]
+17.2 +16.6 96 +17 +18 1005.1 941.2 +18.3 7
18 15.07 С 1 20 км {ливн. осадки} 10/10 420 м
[Sc]
+15.6 +15.6 100 +16 +16 1007.5 943.1
21 15.07 штиль 0 20 км 10/10 1000 м
[Cb calv]
+15.1 +15.1 100 +15 +15 1007.5 942.9
00 16.07 СВ 1 18 км слаб. ливневой дождь 10/10 600 м
[Cb cap]
+14.8 +14.8 100 +15 +15 1007.3 942.7
03 16.07 В 1 16 км ливневой дождь 10/10 300 м
[Cb cap]
+14.8 +14.8 100 +15 +15 1008.1 943.4 +14.5 23
06 16.07 ЮВ 1 7000 м ливневой дождь 10/10 600 м
[Cb cap]
+15.6 +15.6 100 +16 +16 1008.5 944.0
09 16.07 С 1 20 км в посл. час ливневой дождь 10/10 600 м
[Cb cap]
+16.3 +16.3 100 +17 +17 1009.3 944.9
12 16.07 З 2 20 км {ливн. осадки} 10/10 1170 м
[Sc]
+18.2 +16.0 87 +19 +19 1009.6 945.6
15 16.07 В 2 20 км в посл. час ливневой дождь 9/9 840 м
[Cb cap]
+17.7 +16.9 95 +18 +18 1010.4 946.3 +19.5 25
18 16.07 СВ 2 20 км {ливн. осадки} ясно +15.4 +15.2 99 +15 +15 1012.1 947.3
21 16.07 С 2 20 км ясно +13.6 +13.4 99 +13 +13 1012.5 947.2
00 17.07 С 1 20 км ясно +12.3 +12.3 100 +12 +12 1011.8 946.3
03 17.07 СВ 1 20 км ясно +12.1 +12.1 100 +12 +13 1011.2 945.7 +11.7
06 17.07 ЮВ 1 20 км 3/0
[Ci fib]
+19.4 +13.3 68 +22 +33 комфорт 1007.6 943.9
09 17.07 З 2 20 км 1/1 1500 м
[Cu hum]
+24.3 +15.0 56 +27 +44 жарко 1005.1 942.6
12 17.07 ЮЗ 3 20 км 4/3 1500 м
[Cu hum Ac cuf]
+26.1 +15.2 51 +29 +36 жарко 1003.9 941.8
15 17.07 З 1 20 км 4/3 1000 м
[Cu med, cong Ac cast]
+23.7 +17.0 66 +27 +29 жарко 1004.2 941.7 +26.7
18 17.07 СЗ 1 20 км ясно +19.1 +16.9 87 +22 +22 комфорт 1005.6 942.1
21 17.07 штиль 0 20 км 3/0
[Ac cast Cs]
+17.0 +16.2 95 +17 +17 1006.7 942.6
03 18.07 СВ 2 16 км гроза, ливневой дождь 10/8 1000 м
[Cb cap Ac cast Ci fib]
+16.2 +16.2 100 +16 +16 1006.6 942.4 +16.0 1
06 18.07 В 1 2000 м гроза, ливневой дождь 10/10 300 м
[Cb cap]
+16.5 +16.5 100 +17 +17 1008.0 943.7 +15.9
09 18.07 В 1 10 км слаб. ливневой дождь {гроза} 10/10 600 м
[Cb cap]
+17.8 +17.8 100 +19 +19 1008.0 944.1
12 18.07 Ю 1 20 км {гроза, ливн. осадки} 4/3 600 м
[Cu hum Ac lent]
+25.6 +16.7 58 +29 +39 душно 1004.6 942.4
15 18.07 ЮЗ 1 20 км 9/8 1000 м
[Cu Sc Ac lent]
+22.7 +19.3 81 +29 +29 очень
душно
1006.8 944.0 +26.0 43
18 18.07 штиль 0 14 км 10/10 480 м
[Cb cap]
+20.2 +20.2 100 +24 +24 комфорт 1009.5 946.0
21 18.07 В 1 9000 м 10/10 270 м
[Cb cap]
+19.4 +19.4 100 +23 +23 комфорт 1010.7 947.0
00 19.07 штиль 0 7000 м 10/10 270 м
[Cb calv]
+18.4 +18.4 100 +19 +19 1011.5 947.5
03 19.07 В 1 15 км {ливн. осадки} 10/10 600 м
[Sc]
+17.7 +17.7 100 +19 +19 1012.5 948.2 +17.5 2
06 19.07 штиль 0 18 км слаб. ливневой дождь 10/10 1500 м
[Cb cap]
+18.8 +18.8 100 +20 +20 1012.6 948.6
09 19.07 штиль 0 6000 м слаб. ливневой дождь 10/10 1170 м
[Cb cap]
+19.3 +19.3 100 +21 +21 комфорт 1013.4 949.5

 

Местоположение метеостанции Красная Поляна (Краснодарский край, Россия): широта 43.68 долгота 40.20 высота над уровнем моря 567 м.

В архиве по умолчанию представлена погода в Красной Поляне за последнюю неделю. Архивные данные за месяц целиком и за предыдущие месяцы, начиная с января 2011 года, Вы можете получить, выбрав интересующий диапазон дат из раскрывающегося списка и нажав кнопку "Ввод!".


*Определитесь, кто Вы:
робот инопланетянин человек

Внимание! Время в таблицах - всемирное. Для получения местного времени необходимо прибавить поправку, которая равна 3 ч.

Смотрите также архив погоды в соседних городах и на ближайших метеорологических станциях:

Погода в Горная Карусель 1500 (Краснодарский край, Россия) (8 км)
Погода в Горная Карусель 1000 (Краснодарский край, Россия) (8 км)
Погода на Кордоне Лаура (Краснодарский край, Россия) (8 км)
Погода в Кепше (Краснодарский край, Россия) (14 км)
Погода в Гузерипле (Адыгея, Россия) (36 км)
Погода в Сочи (Краснодарский край, Россия) (36 км)
Погода в Сочи аэропорт (Адлере) (Краснодарский край, Россия) (37 км)
Погода в Имеретинке (Краснодарский край, Россия) (37 км)
Погода в Солох Ауле (Краснодарский край, Россия) (48 км)
Погода в Кичмае (Краснодарский край, Россия) (58 км)

Пояснения к столбцам:

Ветер - указаны скорость ветра в м/с - средняя за 10 мин, порывы в срок и между сроками (в фигурных скобках) и направление, откуда дует ветер: С - северный, СВ - северо-восточный, В - восточный, ЮВ - юго-восточный, Ю - южный, ЮЗ - юго-западный, З - западный, СЗ - северо-западный.
Видимость - горизонтальная дальность видимости в метрах или километрах. При видимости от 1 до 10 км при отсутствии осадков обычно наблюдается дымка, при ухудшении видимости до 1 км и менее - туман. В сухую погоду видимость может ухудшаться дымом, пылью или мглою.
Явления - указаны атмосферные явления, наблюдавшиеся в срок или в последний час перед сроком; фигурными скобками обозначены явления, наблюдавшиеся между сроками (за 1-3 часа до срока); квадратными скобками обозначены град или гололедные отложения с указанием их диаметра в мм.
Облачность - указаны через наклонную черту общая и нижняя облачность в баллах и высота нижней границы облаков в метрах; квадратными скобками обозначены формы облаков: Ci - перистые, Cs - перисто-слоистые, Cc - перисто-кучевые, Ac - высококучевые, As - высокослоистые, Sc - слоисто-кучевые, Ns - слоисто-дождевые, Cu - кучевые, Cb - кучево-дождевые. Подробнее классификацию облаков см. в Атласе облаков (PDF).
T - Температура воздуха - температура, измеренная на высоте 2 м над землей.
Td - Температура точки росы - температура, при понижении до которой содержащийся в воздухе водяной пар достигнет насыщения.
f - Относительная влажность воздуха - влажноcть воздуха, измеренная на высоте 2 м над землей.
Te - Эффективная температура - температура, которую ощущает одетый по сезону человек в тени. Характеристика душности погоды. При расчете учитывается влияние влажности воздуха и скорости ветра на теплоощущения человека.
Tes - Эффективная температура на солнце - температура, которую ощущает человек, с поправкой на солнечный нагрев. Характеристика знойности погоды. Зависит от высоты солнца над горизонтом, облачности и скорости ветра. Ночью, в пасмурную погоду, а также при ветре 12 м/с и более поправка равна нулю.
P - Атмосферное давление - приведенное к уровню моря атмосферное давление.
Po - Атмосферное давление - измеренное на уровне метеостанции атмосферное давление.
Tmin - Минимальная температура - минимум температуры воздуха на высоте 2 м над землей.
Tmax - Максимальная температура - максимум температуры воздуха на высоте 2 м над землей.
R - Количество осадков - Количество выпавших осадков за период времени, мм. При наведении курсора мыши на число - период времени, за который выпало указанное количество осадков.
R24 - Количество осадков - Количество выпавших осадков за 24 часа, мм.
S - Снежный покров - Высота снежного покрова, см. При наведении курсора мыши на число - состояние снежного покрова и степень покрытия местности в баллах.